Location: El Carrer d�Abaix
(41.5797°N, 2.1791°E)
Time: 12:19:49
(UTC+00:00)

STARLINK-1233 - Pass Details

Date: 06 June 2020
Orbit: 549 x 551 km, 53.0° (Epoch: 14 July)

Event Time Altitude Azimuth Distance (km) Brightness Sun altitude
Rises 22:05:47 0° 309° (NW) 2,771 8.3 -21.3°
Reaches altitude 10° 22:08:05 10° 315° (NW) 1,877 7.3 -21.4°
Maximum altitude 22:12:17 53° 33° (NNE) 711 4.3 -21.8°
Enters shadow 22:13:25 40° 82° (E) 854 4.4 -21.9°
